| time (UTC) | temp F | wind direction | speed MPH | gust MPH | rain 1hr in | rain 24hr in | rain mn in | humidity % | barometer mb |
| 20260507133710 | 53 | 1 | 0.0 | 5.0 | 0.36 | 0.46 | 0.36 | 88 | 1007.7 |
| 20260507132710 | 52 | 26 | 1.0 | 5.0 | 0.36 | 0.46 | 0.36 | 88 | 1007.5 |
| 20260507131710 | 52 | 331 | 1.0 | 5.0 | 0.00 | 0.10 | 0.00 | 88 | 1007.7 |
| 20260507125712 | 50 | 13 | 0.0 | 0.0 | 0.00 | 0.10 | 0.00 | 88 | 1007.7 |
| 20260507123710 | 50 | 13 | 0.0 | 0.0 | 0.00 | 0.10 | 0.00 | 88 | 1008.1 |
| 20260507122710 | 50 | 13 | 0.0 | 0.0 | 0.00 | 0.10 | 0.00 | 88 | 1008.0 |
| 20260507121710 | 49 | 13 | 0.0 | 0.0 | 0.00 | 0.10 | 0.00 | 88 | 1007.7 |
| 20260507120711 | 49 | 13 | 0.0 | 0.0 | 0.00 | 0.10 | 0.00 | 88 | 1007.8 |
| 20260507115710 | 49 | 13 | 0.0 | 3.0 | 0.00 | 0.10 | 0.00 | 88 | 1007.7 |
| 20260507112710 | 49 | 11 | 0.0 | 0.0 | 0.00 | 0.10 | 0.00 | 88 | 1007.3 |
| 20260507110713 | 49 | 326 | 0.0 | 0.0 | 0.00 | 0.10 | 0.00 | 88 | 1007.8 |
| 20260507104712 | 50 | 212 | 0.0 | 0.0 | 0.00 | 0.10 | 0.00 | 88 | 1007.1 |
| 20260507103710 | 50 | 212 | 0.0 | 3.0 | 0.00 | 0.10 | 0.00 | 88 | 1007.1 |
| 20260507101711 | 50 | 325 | 0.0 | 3.0 | 0.00 | 0.10 | 0.00 | 88 | 1007.1 |
| 20260507094711 | 51 | 273 | 1.0 | 3.0 | 0.00 | 0.10 | 0.00 | 88 | 1006.8 |
| 20260507093711 | 52 | 258 | 0.0 | 1.0 | 0.00 | 0.10 | 0.00 | 88 | 1006.7 |
| 20260507090710 | 53 | 329 | 0.0 | 0.0 | 0.00 | 0.10 | 0.00 | 88 | 1006.5 |
| 20260507084711 | 54 | 335 | 0.0 | 3.0 | 0.00 | 0.10 | 0.00 | 88 | 1006.1 |
| 20260507075710 | 56 | 247 | 0.0 | 0.0 | 0.00 | 0.10 | 0.00 | 88 | 1005.7 |
| 20260507073710 | 56 | 247 | 0.0 | 0.0 | 0.00 | 0.10 | 0.00 | 88 | 1005.2 |
| 20260507070711 | 56 | 247 | 0.0 | 0.0 | 0.00 | 0.10 | 0.00 | 88 | 1005.4 |
| 20260507065711 | 56 | 247 | 0.0 | 0.0 | 0.00 | 0.10 | 0.00 | 88 | 1005.4 |
| 20260507064711 | 56 | 247 | 0.0 | 0.0 | 0.00 | 0.10 | 0.00 | 88 | 1005.4 |
| 20260507061711 | 57 | 247 | 0.0 | 0.0 | 0.00 | 0.10 | 0.00 | 88 | 1005.7 |
| 20260507060711 | 57 | 247 | 0.0 | 0.0 | 0.00 | 0.10 | 0.00 | 88 | 1005.8 |
| 20260507055710 | 57 | 247 | 0.0 | 0.0 | 0.00 | 0.10 | 0.00 | 88 | 1006.0 |
| 20260507053710 | 57 | 247 | 0.0 | 2.0 | 0.00 | 0.10 | 0.00 | 88 | 1005.8 |
| 20260507052710 | 57 | 268 | 0.0 | 3.0 | 0.00 | 0.10 | 0.00 | 88 | 1005.9 |
| 20260507050710 | 57 | 177 | 1.0 | 3.0 | 0.00 | 0.10 | 0.00 | 88 | 1006.3 |
| 20260507042710 | 57 | 234 | 0.0 | 2.0 | 0.00 | 0.10 | 0.00 | 88 | 1006.1 |
| 20260507040711 | 57 | 247 | 0.0 | 5.0 | 0.00 | 0.10 | 0.00 | 88 | 1006.0 |
| 20260507032710 | 57 | 273 | 1.0 | 7.0 | 0.00 | 0.10 | 0.10 | 88 | 1006.3 |
| 20260507030710 | 57 | 268 | 0.0 | 3.0 | 0.00 | 0.10 | 0.10 | 88 | 1006.0 |
| 20260507025711 | 57 | 271 | 1.0 | 5.0 | 0.00 | 0.10 | 0.10 | 88 | 1005.8 |
| 20260507024710 | 57 | 215 | 2.0 | 6.0 | 0.05 | 0.10 | 0.10 | 88 | 1005.8 |
| 20260507022710 | 57 | 227 | 3.0 | 8.0 | 0.05 | 0.10 | 0.10 | 88 | 1005.9 |
| 20260507020711 | 57 | 251 | 2.0 | 5.0 | 0.05 | 0.10 | 0.10 | 88 | 1006.4 |
| 20260507014710 | 57 | 220 | 4.0 | 7.0 | 0.00 | 0.05 | 0.05 | 88 | 1006.5 |
| 20260507013711 | 57 | 221 | 3.0 | 8.0 | 0.00 | 0.05 | 0.05 | 88 | 1006.7 |
| 20260507011711 | 57 | 210 | 3.0 | 12.0 | 0.00 | 0.05 | 0.05 | 88 | 1006.7 |
| 20260507003712 | 58 | 224 | 3.0 | 10.0 | 0.00 | 0.05 | 0.05 | 88 | 1006.8 |
| 20260507000710 | 58 | 228 | 2.0 | 7.0 | 0.00 | 0.05 | 0.05 | 88 | 1006.8 |
| 20260506234710 | 58 | 242 | 3.0 | 12.0 | 0.05 | 0.05 | 0.05 | 88 | 1006.8 |
| 20260506233710 | 58 | 208 | 4.0 | 8.0 | 0.05 | 0.05 | 0.05 | 88 | 1006.8 |
| 20260506232710 | 58 | 208 | 3.0 | 8.0 | 0.05 | 0.05 | 0.05 | 88 | 1006.8 |
| 20260506231711 | 58 | 240 | 3.0 | 7.0 | 0.05 | 0.05 | 0.05 | 88 | 1006.8 |
| 20260506230710 | 58 | 212 | 3.0 | 13.0 | 0.05 | 0.05 | 0.05 | 87 | 1006.8 |
| 20260506225711 | 59 | 209 | 4.0 | 7.0 | 0.00 | 0.00 | 0.00 | 87 | 1006.9 |
| 20260506222713 | 59 | 219 | 5.0 | 9.0 | 0.00 | 0.00 | 0.00 | 86 | 1007.2 |
| 20260506213710 | 62 | 236 | 4.0 | 9.0 | 0.00 | 0.00 | 0.00 | 83 | 1007.3 |
| 20260506210711 | 63 | 220 | 6.0 | 12.0 | 0.00 | 0.00 | 0.00 | 81 | 1007.5 |
| 20260506205711 | 63 | 234 | 5.0 | 14.0 | 0.00 | 0.00 | 0.00 | 81 | 1007.5 |
| 20260506203711 | 62 | 249 | 5.0 | 12.0 | 0.00 | 0.00 | 0.00 | 80 | 1007.7 |
| 20260506202710 | 63 | 215 | 5.0 | 13.0 | 0.00 | 0.00 | 0.00 | 79 | 1007.8 |
| 20260506201711 | 64 | 228 | 3.0 | 8.0 | 0.00 | 0.00 | 0.00 | 77 | 1007.9 |
| 20260506195711 | 65 | 264 | 6.0 | 12.0 | 0.00 | 0.00 | 0.00 | 73 | 1008.1 |
| 20260506194710 | 65 | 225 | 4.0 | 8.0 | 0.00 | 0.00 | 0.00 | 73 | 1008.2 |
| 20260506191712 | 65 | 231 | 6.0 | 15.0 | 0.00 | 0.00 | 0.00 | 72 | 1008.2 |
| 20260506185711 | 66 | 223 | 5.0 | 12.0 | 0.00 | 0.00 | 0.00 | 70 | 1008.3 |
| 20260506183711 | 67 | 207 | 6.0 | 14.0 | 0.00 | 0.00 | 0.00 | 69 | 1008.4 |
| 20260506182710 | 67 | 225 | 8.0 | 16.0 | 0.00 | 0.00 | 0.00 | 68 | 1008.5 |
| 20260506180751 | 68 | 202 | 9.0 | 17.0 | 0.00 | 0.00 | 0.00 | 65 | 1008.8 |
| 20260506174710 | 70 | 225 | 5.0 | 14.0 | 0.00 | 0.00 | 0.00 | 64 | 1009.2 |
| 20260506173710 | 70 | 212 | 7.0 | 14.0 | 0.00 | 0.00 | 0.00 | 64 | 1009.2 |
| 20260506172711 | 70 | 208 | 7.0 | 17.0 | 0.00 | 0.00 | 0.00 | 63 | 1009.1 |
| 20260506171710 | 70 | 232 | 6.0 | 16.0 | 0.00 | 0.00 | 0.00 | 65 | 1009.2 |
| 20260506170710 | 69 | 252 | 7.0 | 18.0 | 0.00 | 0.00 | 0.00 | 66 | 1009.4 |
| 20260506165710 | 69 | 224 | 6.0 | 17.0 | 0.00 | 0.00 | 0.00 | 66 | 1009.4 |
| 20260506164710 | 69 | 196 | 9.0 | 16.0 | 0.00 | 0.00 | 0.00 | 65 | 1009.5 |
| 20260506155710 | 71 | 192 | 6.0 | 15.0 | 0.00 | 0.00 | 0.00 | 62 | 1010.0 |
| 20260506153710 | 70 | 260 | 6.0 | 13.0 | 0.00 | 0.00 | 0.00 | 65 | 1010.6 |
| 20260506150710 | 70 | 198 | 7.0 | 14.0 | 0.00 | 0.00 | 0.00 | 64 | 1010.5 |